Location: Freistadt
(48.5112°N, 14.5013°E)
Time: 09:55:58
(UTC+02:00)

PCSat - Pass Details

Date: 31 March 2023
Orbit: 783 x 794 km, 67.1° (Epoch: 29 May)

Event Time Altitude Azimuth Distance (km) Brightness Sun altitude
Rises 20:25:45 0° 304° (WNW) 3,292 14.5 -9.7°
Reaches altitude 10° 20:30:33 10° 341° (NNW) 2,366 12.6 -10.5°
Maximum altitude 20:31:47 11° 355° (N) 2,319 12.3 -10.7°
Drops below altitude 10° 20:33:00 10° 8° (N) 2,368 12.2 -10.9°
Sets 20:37:49 0° 46° (NE) 3,301 12.5 -11.6°
